Stündliche Wetter Warren

Heute, 24 Oktober, Samstag

Zeit Temperatur Niederschläge Wind Luftdruck Luftfeuchtigkeit
00:00 +14°C° 0.2 mm 4 m/S 736 mmHg 89%
01:00 +12°C° 0.2 mm 5 m/S 736 mmHg 89%
02:00 +10°C° 0.1 mm 5 m/S 736 mmHg 88%
03:00 +9°C° 0.1 mm 5 m/S 737 mmHg 86%
04:00 +8°C° 0.1 mm 4 m/S 737 mmHg 85%
05:00 +7°C° 0 mm 4 m/S 738 mmHg 84%
06:00 +7°C° 0 mm 4 m/S 738 mmHg 83%
07:00 +6°C° 0 mm 4 m/S 739 mmHg 82%
08:00 +6°C° 0 mm 4 m/S 739 mmHg 79%
09:00 +7°C° 0 mm 4 m/S 740 mmHg 75%
10:00 +8°C° 0 mm 3 m/S 740 mmHg 72%
11:00 +8°C° 0 mm 3 m/S 740 mmHg 69%
12:00 +9°C° 0 mm 3 m/S 740 mmHg 65%
13:00 +9°C° 0 mm 3 m/S 740 mmHg 62%
14:00 +9°C° 0 mm 3 m/S 740 mmHg 62%
15:00 +9°C° 0 mm 3 m/S 740 mmHg 62%
16:00 +8°C° 0 mm 3 m/S 739 mmHg 62%
17:00 +7°C° 0 mm 3 m/S 740 mmHg 65%
18:00 +5°C° 0 mm 3 m/S 740 mmHg 69%
19:00 +5°C° 0 mm 2 m/S 740 mmHg 73%
20:00 +5°C° 0 mm 2 m/S 740 mmHg 75%
21:00 +5°C° 0 mm 1 m/S 740 mmHg 77%
22:00 +5°C° 0 mm 1 m/S 740 mmHg 78%
23:00 +4°C° 0 mm 1 m/S 740 mmHg 80%

Morgen, 25 Oktober, Sonntag

Zeit Temperatur Niederschläge Wind Luftdruck Luftfeuchtigkeit
00:00 +4°C° 0 mm 1 m/S 740 mmHg 81%
01:00 +4°C° 0 mm 1 m/S 740 mmHg 82%
02:00 +4°C° 0 mm 1 m/S 740 mmHg 83%
03:00 +2°C° 0 mm 2 m/S 740 mmHg 83%
04:00 +2°C° 0 mm 2 m/S 740 mmHg 84%
05:00 +2°C° 0 mm 2 m/S 740 mmHg 83%
06:00 +2°C° 0 mm 2 m/S 740 mmHg 83%
07:00 +1°C° 0 mm 2 m/S 740 mmHg 82%
08:00 +2°C° 0 mm 3 m/S 740 mmHg 73%
09:00 +4°C° 0 mm 3 m/S 740 mmHg 64%
10:00 +6°C° 0 mm 4 m/S 740 mmHg 56%
11:00 +9°C° 0 mm 3 m/S 739 mmHg 52%
12:00 +10°C° 0 mm 3 m/S 739 mmHg 49%
13:00 +11°C° 0 mm 3 m/S 739 mmHg 45%
14:00 +11°C° 0 mm 3 m/S 738 mmHg 48%
15:00 +11°C° 0 mm 3 m/S 738 mmHg 50%
16:00 +10°C° 0 mm 3 m/S 738 mmHg 52%
17:00 +9°C° 0 mm 2 m/S 738 mmHg 59%
18:00 +7°C° 0 mm 2 m/S 738 mmHg 66%
19:00 +7°C° 0 mm 1 m/S 738 mmHg 72%
20:00 +7°C° 0 mm 1 m/S 738 mmHg 74%
21:00 +6°C° 0 mm 1 m/S 738 mmHg 76%
22:00 +6°C° 0 mm 1 m/S 737 mmHg 78%
23:00 +7°C° 0 mm 1 m/S 737 mmHg 76%

übermorgen, 26 Oktober, Montag

Zeit Temperatur Niederschläge Wind Luftdruck Luftfeuchtigkeit
00:00 +6°C° 0 mm 0 m/S 737 mmHg 75%
01:00 +7°C° 0 mm 0 m/S 737 mmHg 73%
02:00 +8°C° 0 mm 1 m/S 737 mmHg 74%
03:00 +8°C° 0 mm 1 m/S 737 mmHg 74%
04:00 +8°C° 0 mm 1 m/S 737 mmHg 74%
05:00 +8°C° 0 mm 1 m/S 738 mmHg 76%
06:00 +8°C° 0 mm 1 m/S 738 mmHg 77%
07:00 +8°C° 0 mm 1 m/S 738 mmHg 78%
08:00 +8°C° 0 mm 1 m/S 738 mmHg 78%
09:00 +8°C° 0 mm 1 m/S 739 mmHg 78%
10:00 +7°C° 0 mm 2 m/S 739 mmHg 78%
11:00 +8°C° 0 mm 2 m/S 739 mmHg 78%
12:00 +8°C° 0 mm 2 m/S 739 mmHg 77%
13:00 +8°C° 0 mm 2 m/S 739 mmHg 77%
14:00 +9°C° 0 mm 2 m/S 740 mmHg 76%
15:00 +9°C° 0 mm 2 m/S 740 mmHg 74%
16:00 +9°C° 0 mm 3 m/S 740 mmHg 73%
17:00 +8°C° 0.3 mm 2 m/S 740 mmHg 77%
18:00 +7°C° 0.3 mm 2 m/S 741 mmHg 81%
19:00 +7°C° 0.3 mm 1 m/S 741 mmHg 86%
20:00 +7°C° 0.1 mm 1 m/S 741 mmHg 86%
21:00 +7°C° 0.1 mm 1 m/S 741 mmHg 86%
22:00 +6°C° 0.1 mm 0 m/S 741 mmHg 85%
23:00 +7°C° 0.4 mm 1 m/S 741 mmHg 87%

, 27 Oktober, Dienstag

Zeit Temperatur Niederschläge Wind Luftdruck Luftfeuchtigkeit
00:00 +7°C° 0.4 mm 1 m/S 741 mmHg 89%
01:00 +7°C° 0.4 mm 1 m/S 741 mmHg 90%
02:00 +6°C° 0.7 mm 1 m/S 741 mmHg 91%
03:00 +6°C° 0.7 mm 1 m/S 741 mmHg 92%
04:00 +6°C° 0.7 mm 1 m/S 741 mmHg 93%
05:00 +5°C° 0.5 mm 2 m/S 741 mmHg 93%
06:00 +5°C° 0.5 mm 2 m/S 741 mmHg 93%
07:00 +5°C° 0.5 mm 2 m/S 741 mmHg 93%
08:00 +5°C° 0.2 mm 2 m/S 741 mmHg 93%
09:00 +5°C° 0.2 mm 2 m/S 741 mmHg 92%
10:00 +5°C° 0.2 mm 2 m/S 741 mmHg 92%
11:00 +7°C° 0 mm 1 m/S 741 mmHg 91%
12:00 +7°C° 0 mm 1 m/S 741 mmHg 90%
13:00 +6°C° 0 mm 0 m/S 740 mmHg 89%
14:00 +7°C° 0 mm 0 m/S 740 mmHg 88%
15:00 +7°C° 0 mm 0 m/S 740 mmHg 87%
16:00 +7°C° 0 mm 0 m/S 739 mmHg 85%
17:00 +7°C° 0 mm 0 m/S 740 mmHg 87%
18:00 +7°C° 0 mm 0 m/S 740 mmHg 90%
19:00 +6°C° 0 mm 0 m/S 740 mmHg 92%
20:00 +6°C° 0.1 mm 0 m/S 740 mmHg 92%
21:00 +6°C° 0.1 mm 0 m/S 740 mmHg 93%
22:00 +6°C° 0.1 mm 0 m/S 740 mmHg 93%
23:00 +7°C° 0.1 mm 1 m/S 740 mmHg 93%

27 Oktober, Dienstag

Zeit Temperatur Niederschläge Wind Luftdruck Luftfeuchtigkeit
00:00 +7°C° 0.4 mm 1 m/S 741 mmHg 89%
01:00 +7°C° 0.4 mm 1 m/S 741 mmHg 90%
02:00 +6°C° 0.7 mm 1 m/S 741 mmHg 91%
03:00 +6°C° 0.7 mm 1 m/S 741 mmHg 92%
04:00 +6°C° 0.7 mm 1 m/S 741 mmHg 93%
05:00 +5°C° 0.5 mm 2 m/S 741 mmHg 93%
06:00 +5°C° 0.5 mm 2 m/S 741 mmHg 93%
07:00 +5°C° 0.5 mm 2 m/S 741 mmHg 93%
08:00 +5°C° 0.2 mm 2 m/S 741 mmHg 93%
09:00 +5°C° 0.2 mm 2 m/S 741 mmHg 92%
10:00 +5°C° 0.2 mm 2 m/S 741 mmHg 92%
11:00 +7°C° 0 mm 1 m/S 741 mmHg 91%
12:00 +7°C° 0 mm 1 m/S 741 mmHg 90%
13:00 +6°C° 0 mm 0 m/S 740 mmHg 89%
14:00 +7°C° 0 mm 0 m/S 740 mmHg 88%
15:00 +7°C° 0 mm 0 m/S 740 mmHg 87%
16:00 +7°C° 0 mm 0 m/S 739 mmHg 85%
17:00 +7°C° 0 mm 0 m/S 740 mmHg 87%
18:00 +7°C° 0 mm 0 m/S 740 mmHg 90%
19:00 +6°C° 0 mm 0 m/S 740 mmHg 92%
20:00 +6°C° 0.1 mm 0 m/S 740 mmHg 92%
21:00 +6°C° 0.1 mm 0 m/S 740 mmHg 93%
22:00 +6°C° 0.1 mm 0 m/S 740 mmHg 93%
23:00 +7°C° 0.1 mm 1 m/S 740 mmHg 93%

28 Oktober, Mittwoch

Zeit Temperatur Niederschläge Wind Luftdruck Luftfeuchtigkeit
00:00 +7°C° 0.1 mm 1 m/S 740 mmHg 92%
01:00 +7°C° 0.1 mm 1 m/S 740 mmHg 92%
02:00 +7°C° 0.1 mm 1 m/S 739 mmHg 92%
03:00 +6°C° 0.1 mm 0 m/S 739 mmHg 91%
04:00 +5°C° 0.1 mm 0 m/S 739 mmHg 91%
05:00 +5°C° 0 mm 0 m/S 739 mmHg 91%
06:00 +5°C° 0 mm 0 m/S 738 mmHg 92%
07:00 +4°C° 0 mm 0 m/S 738 mmHg 92%
08:00 +5°C° 0 mm 0 m/S 738 mmHg 90%
09:00 +7°C° 0 mm 1 m/S 738 mmHg 88%
10:00 +8°C° 0 mm 1 m/S 738 mmHg 86%
11:00 +9°C° 0 mm 1 m/S 738 mmHg 81%
12:00 +9°C° 0 mm 2 m/S 737 mmHg 76%
13:00 +10°C° 0 mm 2 m/S 737 mmHg 72%
14:00 +10°C° 0 mm 3 m/S 736 mmHg 73%
15:00 +10°C° 0 mm 3 m/S 736 mmHg 74%
16:00 +9°C° 0 mm 3 m/S 735 mmHg 75%
17:00 +8°C° 0 mm 3 m/S 735 mmHg 80%
18:00 +7°C° 0 mm 3 m/S 735 mmHg 84%
19:00 +5°C° 0 mm 3 m/S 735 mmHg 89%
20:00 +5°C° 0 mm 3 m/S 735 mmHg 89%
21:00 +5°C° 0 mm 3 m/S 735 mmHg 88%
22:00 +5°C° 0 mm 3 m/S 735 mmHg 88%
23:00 +4°C° 0 mm 4 m/S 735 mmHg 85%

29 Oktober, Donnerstag

Zeit Temperatur Niederschläge Wind Luftdruck Luftfeuchtigkeit
00:00 +4°C° 0 mm 4 m/S 735 mmHg 83%
01:00 +4°C° 0 mm 4 m/S 735 mmHg 80%
02:00 +3°C° 0 mm 3 m/S 735 mmHg 78%
03:00 +3°C° 0 mm 3 m/S 735 mmHg 77%
04:00 +2°C° 0 mm 3 m/S 734 mmHg 76%
05:00 +2°C° 0 mm 3 m/S 735 mmHg 75%
06:00 +2°C° 0 mm 3 m/S 735 mmHg 75%
07:00 +1°C° 0 mm 3 m/S 735 mmHg 74%
08:00 +3°C° 0 mm 4 m/S 736 mmHg 72%
09:00 +4°C° 0 mm 4 m/S 737 mmHg 71%
10:00 +5°C° 0 mm 4 m/S 737 mmHg 70%
11:00 +5°C° 0 mm 4 m/S 738 mmHg 67%
12:00 +6°C° 0 mm 5 m/S 738 mmHg 65%
13:00 +6°C° 0 mm 5 m/S 738 mmHg 62%
14:00 +6°C° 0 mm 5 m/S 739 mmHg 61%
15:00 +6°C° 0 mm 4 m/S 739 mmHg 60%
16:00 +5°C° 0 mm 4 m/S 739 mmHg 59%
17:00 +5°C° 0 mm 4 m/S 740 mmHg 63%
18:00 +4°C° 0 mm 4 m/S 741 mmHg 67%
19:00 +4°C° 0 mm 4 m/S 742 mmHg 70%
20:00 +3°C° 0 mm 4 m/S 743 mmHg 69%
21:00 +3°C° 0 mm 4 m/S 743 mmHg 67%
22:00 +1°C° 0 mm 4 m/S 744 mmHg 65%
23:00 +2°C° 0 mm 3 m/S 744 mmHg 67%
Mehr zeigen

Wir brauchen deine Erlaubnis

Meteoprog und unser Service Anbieter werden persönliche Daten aufbewahren, so wie Cookies, Geräte Bezeichnung oder ähnliche Technologien von deinem Gerät und Prozess, so wie Persönliche Daten Inhalte und Werbungen, genauso wie social Media und den Verkehr zu analysieren.

  • Aufbewahrung und/oder Zugang zu deiner Geräte Informationen.

    Cookies, Geräte Bezeichnung oder andere Informationen, können aufbewahrt oder Zugang zu deinem Gerät erhalten, für den Grund, der oben angegeben wird.

  • Personalisierte Werbung und Inhalte, Messungen, Einblick in das Publikum und Produkt Entwicklung.

    Werbungen und Inhalte können personalisiert werden, basierend auf ein Profil. Mehr Daten können besser personalisierte Werbungen und Inhalte hinzufügen. Werbung und Inhalte können gezeigt und gemessen werden. Einblicke über das Publikum, welche die Werbung gesehen haben und den Inhalt, können abgeleitet werden. So wie Daten können genutzt werden, um es zu verbessern oder die Benutzer Erfahrung zu verbessern das System und die Software.

Wenn du “Ich stimme zu” klickst, erlaubst du uns, die Cookies zu benutzen die Geräte Bezeichnung, den Web oder ähnliche Technologien zu benutzen. Deine Settings, können in deinem Gerät bei deinem Browser geändert werden.

Für den bestimmten Zweck, berechtigten Interessen beruhen darauf, mehr als auf den Inhalt. Du kannst mehr darüber in unseren Privaten und Cookie Politik lesen.